Multibeam Report for KRY14_04


Ship Name: Keary
Chief Scientist: O'Toole, Ronan
Geological Survey of Ireland
Source Organization: Geological Survey of Ireland (GSI)
Start Date: 2014-08-22
End Date: 2014-09-07


View ISO Metadata

Visit the full NCEI Bathymetry Viewer


Multibeam Bathymetry

Cruise Details

Project: INFOMAR
Instrument: Kongsberg EM2040

Data Quality

Number of Files: 171
Number of Records: 2485875
BATHYMETRY DATA Quantity Percentage
Number of Beams 993760000 100%
Number of Good Beams 979764294 98.59%
Number of Zero Beams 0 0%
Number of Flagged Beams 13995706 1.41%

Navigation Totals

Total Time: 60.1733 hours
Total Track Length: 507.0133 km
Average Speed: 8.426 km/hr (4.5497 knots)

Cruise Bounds

Northern Extent: 53.636364
Southern Extent: 53.497204
Western Extent: -10.333542
Eastern Extent: -9.850541

Limits

Minimum Sonar Depth 0 Maximum Sonar Depth 6.2301
Minimum Altitude 0.2427 Maximum Altitude 121.6196
Minimum Depth 1.8493 Maximum Depth 140.1973

File Information

Full Resolution Bathymetry as collected (raw): 170

Files File Size Description
0000_20140822_132136_KEARY.all.mb58.gz 886.69MB Kongsberg multibeam vendor format
0001_20140822_132136_KEARY.all.mb58.gz 886.69MB Kongsberg multibeam vendor format
0002_20140822_135706_KEARY.all.mb58.gz 232.74MB Kongsberg multibeam vendor format
0003_20140822_140856_KEARY.all.mb58.gz 233.32MB Kongsberg multibeam vendor format
0004_20140822_141950_KEARY.all.mb58.gz 485.05MB Kongsberg multibeam vendor format
0005_20140822_144152_KEARY.all.mb58.gz 845.96MB Kongsberg multibeam vendor format
0006_20140822_150828_KEARY.all.mb58.gz 626.58MB Kongsberg multibeam vendor format
0007_20140822_153710_KEARY.all.mb58.gz 449.17MB Kongsberg multibeam vendor format
0008_20140822_155237_KEARY.all.mb58.gz 520.66MB Kongsberg multibeam vendor format
0009_20140822_162630_KEARY.all.mb58.gz 215.09MB Kongsberg multibeam vendor format
0010_20140822_163526_KEARY.all.mb58.gz 214.66MB Kongsberg multibeam vendor format
0011_20140822_164438_KEARY.all.mb58.gz 82.97MB Kongsberg multibeam vendor format
0012_20140822_164931_KEARY.all.mb58.gz 58.20MB Kongsberg multibeam vendor format
0013_20140822_165236_KEARY.all.mb58.gz 43.13MB Kongsberg multibeam vendor format
0014_20140822_165456_KEARY.all.mb58.gz 33.92MB Kongsberg multibeam vendor format
0015_20140822_165700_KEARY.all.mb58.gz 39.95MB Kongsberg multibeam vendor format
0016_20140822_165902_KEARY.all.mb58.gz 24.40MB Kongsberg multibeam vendor format
0017_20140822_170051_KEARY.all.mb58.gz 36.33MB Kongsberg multibeam vendor format
0018_20140822_170232_KEARY.all.mb58.gz 40.48MB Kongsberg multibeam vendor format
0019_20140822_170646_KEARY.all.mb58.gz 51.99MB Kongsberg multibeam vendor format
0020_20140822_170944_KEARY.all.mb58.gz 46.90MB Kongsberg multibeam vendor format
0021_20140822_171149_KEARY.all.mb58.gz 54.61MB Kongsberg multibeam vendor format
0022_20140822_171346_KEARY.all.mb58.gz 54.60MB Kongsberg multibeam vendor format
0023_20140822_171546_KEARY.all.mb58.gz 42.04MB Kongsberg multibeam vendor format
0024_20140822_172429_KEARY.all.mb58.gz 1139.36MB Kongsberg multibeam vendor format
0025_20140823_090856_KEARY.all.mb58.gz 1199.75MB Kongsberg multibeam vendor format
0026_20140823_093959_KEARY.all.mb58.gz 77.04MB Kongsberg multibeam vendor format
0027_20140823_094235_KEARY.all.mb58.gz 236.95MB Kongsberg multibeam vendor format
0028_20140823_095957_KEARY.all.mb58.gz 366.39MB Kongsberg multibeam vendor format
0029_20140823_101123_KEARY.all.mb58.gz 848.26MB Kongsberg multibeam vendor format
0030_20140823_104337_KEARY.all.mb58.gz 574.52MB Kongsberg multibeam vendor format
0031_20140823_105930_KEARY.all.mb58.gz 564.64MB Kongsberg multibeam vendor format
0032_20140823_111649_KEARY.all.mb58.gz 590.81MB Kongsberg multibeam vendor format
0033_20140823_114153_KEARY.all.mb58.gz 808.95MB Kongsberg multibeam vendor format
0034_20140823_122211_KEARY.all.mb58.gz 490.21MB Kongsberg multibeam vendor format
0035_20140823_124220_KEARY.all.mb58.gz 1522.63MB Kongsberg multibeam vendor format
0036_20140823_134115_KEARY.all.mb58.gz 523.06MB Kongsberg multibeam vendor format
0037_20140823_135217_KEARY.all.mb58.gz 301.66MB Kongsberg multibeam vendor format
0038_20140823_164007_KEARY.all.mb58.gz 280.98MB Kongsberg multibeam vendor format
0039_20140823_164603_KEARY.all.mb58.gz 286.54MB Kongsberg multibeam vendor format
0040_20140823_171125_KEARY.all.mb58.gz 672.94MB Kongsberg multibeam vendor format
0041_20140823_174020_KEARY.all.mb58.gz 1422.39MB Kongsberg multibeam vendor format
0042_20140823_183600_KEARY.all.mb58.gz 188.10MB Kongsberg multibeam vendor format
0043_20140825_170802_KEARY.all.mb58.gz 112.79MB Kongsberg multibeam vendor format
0043_20140825_171510_KEARY.all.mb58.gz 43.24MB Kongsberg multibeam vendor format
0043_20140825_171947_KEARY.all.mb58.gz 117.88MB Kongsberg multibeam vendor format
0043_20140825_172501_KEARY.all.mb58.gz 62.87MB Kongsberg multibeam vendor format
0044_20140825_173518_KEARY.all.mb58.gz 297.78MB Kongsberg multibeam vendor format
0045_20140825_174919_KEARY.all.mb58.gz 294.04MB Kongsberg multibeam vendor format
0046_20140825_180736_KEARY.all.mb58.gz 724.53MB Kongsberg multibeam vendor format
0047_20140825_184632_KEARY.all.mb58.gz 649.16MB Kongsberg multibeam vendor format
0048_20140825_192409_KEARY.all.mb58.gz 598.11MB Kongsberg multibeam vendor format
0049_20140825_194500_KEARY.all.mb58.gz 747.40MB Kongsberg multibeam vendor format
0050_20140825_201139_KEARY.all.mb58.gz 888.14MB Kongsberg multibeam vendor format
0051_20140826_095216_KEARY.all.mb58.gz 1237.86MB Kongsberg multibeam vendor format
0052_20140826_104229_KEARY.all.mb58.gz 633.84MB Kongsberg multibeam vendor format
0053_20140826_111950_KEARY.all.mb58.gz 759.76MB Kongsberg multibeam vendor format
0054_20140826_113723_KEARY.all.mb58.gz 718.82MB Kongsberg multibeam vendor format
0055_20140826_115306_KEARY.all.mb58.gz 783.11MB Kongsberg multibeam vendor format
0055_20140826_121110_KEARY.all.mb58.gz 55.51MB Kongsberg multibeam vendor format
0055_20140826_121324_KEARY.all.mb58.gz 62.52MB Kongsberg multibeam vendor format
0055_20140826_121618_KEARY.all.mb58.gz 39.55MB Kongsberg multibeam vendor format
0055_20140826_121812_KEARY.all.mb58.gz 40.09MB Kongsberg multibeam vendor format
0055_20140826_122026_KEARY.all.mb58.gz 70.25MB Kongsberg multibeam vendor format
0056_20140826_122837_KEARY.all.mb58.gz 914.09MB Kongsberg multibeam vendor format
0057_20140826_125348_KEARY.all.mb58.gz 927.11MB Kongsberg multibeam vendor format
0058_20140826_133036_KEARY.all.mb58.gz 431.71MB Kongsberg multibeam vendor format
0059_20140826_135055_KEARY.all.mb58.gz 439.85MB Kongsberg multibeam vendor format
0060_20140826_140734_KEARY.all.mb58.gz 506.57MB Kongsberg multibeam vendor format
0061_20140826_143025_KEARY.all.mb58.gz 522.67MB Kongsberg multibeam vendor format
0062_20140826_145112_KEARY.all.mb58.gz 572.92MB Kongsberg multibeam vendor format
0063_20140826_151302_KEARY.all.mb58.gz 628.13MB Kongsberg multibeam vendor format
0064_20140826_154555_KEARY.all.mb58.gz 1192.97MB Kongsberg multibeam vendor format
0065_20140826_162447_KEARY.all.mb58.gz 591.27MB Kongsberg multibeam vendor format
0066_20140826_170313_KEARY.all.mb58.gz 533.65MB Kongsberg multibeam vendor format
0067_20140826_174803_KEARY.all.mb58.gz 82.15MB Kongsberg multibeam vendor format
0067_20140826_175153_KEARY.all.mb58.gz 68.54MB Kongsberg multibeam vendor format
0067_20140826_175518_KEARY.all.mb58.gz 52.05MB Kongsberg multibeam vendor format
0067_20140826_175755_KEARY.all.mb58.gz 49.74MB Kongsberg multibeam vendor format
0068_20140826_181139_KEARY.all.mb58.gz 692.00MB Kongsberg multibeam vendor format
0069_20140901_094607_KEARY.all.mb58.gz 46.05MB Kongsberg multibeam vendor format
0070_20140901_095054_KEARY.all.mb58.gz 41.42MB Kongsberg multibeam vendor format
0071_20140901_095609_KEARY.all.mb58.gz 36.14MB Kongsberg multibeam vendor format
0072_20140901_100945_KEARY.all.mb58.gz 45.28MB Kongsberg multibeam vendor format
0073_20140901_102300_KEARY.all.mb58.gz 102.05MB Kongsberg multibeam vendor format
0074_20140901_103512_KEARY.all.mb58.gz 100.61MB Kongsberg multibeam vendor format
0075_20140901_104204_KEARY.all.mb58.gz 55.24MB Kongsberg multibeam vendor format
0076_20140901_110131_KEARY.all.mb58.gz 123.15MB Kongsberg multibeam vendor format
0077_20140901_110851_KEARY.all.mb58.gz 124.00MB Kongsberg multibeam vendor format
0078_20140901_112705_KEARY.all.mb58.gz 321.68MB Kongsberg multibeam vendor format
0079_20140901_120424_KEARY.all.mb58.gz 214.23MB Kongsberg multibeam vendor format
0080_20140901_124019_KEARY.all.mb58.gz 268.31MB Kongsberg multibeam vendor format
0081_20140901_132015_KEARY.all.mb58.gz 407.27MB Kongsberg multibeam vendor format
0082_20140901_145947_KEARY.all.mb58.gz 304.36MB Kongsberg multibeam vendor format
0083_20140901_154106_KEARY.all.mb58.gz 358.63MB Kongsberg multibeam vendor format
0084_20140901_162519_KEARY.all.mb58.gz 334.26MB Kongsberg multibeam vendor format
0085_20140901_165956_KEARY.all.mb58.gz 33.22MB Kongsberg multibeam vendor format
0085_20140901_170412_KEARY.all.mb58.gz 246.15MB Kongsberg multibeam vendor format
0086_20140902_115846_KEARY.all.mb58.gz 767.10MB Kongsberg multibeam vendor format
0087_20140902_125726_KEARY.all.mb58.gz 457.83MB Kongsberg multibeam vendor format
0088_20140902_134826_KEARY.all.mb58.gz 471.56MB Kongsberg multibeam vendor format
0089_20140902_143912_KEARY.all.mb58.gz 182.01MB Kongsberg multibeam vendor format
0090_20140902_150325_KEARY.all.mb58.gz 187.62MB Kongsberg multibeam vendor format
0091_20140902_152904_KEARY.all.mb58.gz 145.46MB Kongsberg multibeam vendor format
0092_20140902_155535_KEARY.all.mb58.gz 129.52MB Kongsberg multibeam vendor format
0093_20140902_163820_KEARY.all.mb58.gz 92.41MB Kongsberg multibeam vendor format
0094_20140905_125014_KEARY.all.mb58.gz 530.59MB Kongsberg multibeam vendor format
0095_20140905_141040_KEARY.all.mb58.gz 261.04MB Kongsberg multibeam vendor format
0096_20140905_143858_KEARY.all.mb58.gz 247.39MB Kongsberg multibeam vendor format
0097_20140905_151831_KEARY.all.mb58.gz 291.19MB Kongsberg multibeam vendor format
0098_20140905_155843_KEARY.all.mb58.gz 204.78MB Kongsberg multibeam vendor format
0099_20140905_162040_KEARY.all.mb58.gz 198.12MB Kongsberg multibeam vendor format
0100_20140905_164028_KEARY.all.mb58.gz 140.21MB Kongsberg multibeam vendor format
0101_20140905_170342_KEARY.all.mb58.gz 222.65MB Kongsberg multibeam vendor format
0102_20140905_172340_KEARY.all.mb58.gz 198.55MB Kongsberg multibeam vendor format
0103_20140906_120452_KEARY.all.mb58.gz 230.11MB Kongsberg multibeam vendor format
0104_20140906_123349_KEARY.all.mb58.gz 286.01MB Kongsberg multibeam vendor format
0105_20140906_131825_KEARY.all.mb58.gz 304.20MB Kongsberg multibeam vendor format
0106_20140906_135109_KEARY.all.mb58.gz 280.64MB Kongsberg multibeam vendor format
0107_20140906_142103_KEARY.all.mb58.gz 317.41MB Kongsberg multibeam vendor format
0108_20140906_151648_KEARY.all.mb58.gz 274.34MB Kongsberg multibeam vendor format
0109_20140906_154642_KEARY.all.mb58.gz 318.27MB Kongsberg multibeam vendor format
0110_20140906_162107_KEARY.all.mb58.gz 314.26MB Kongsberg multibeam vendor format
0111_20140907_104627_KEARY.all.mb58.gz 344.05MB Kongsberg multibeam vendor format
0112_20140907_112119_KEARY.all.mb58.gz 319.77MB Kongsberg multibeam vendor format
0113_20140907_115230_KEARY.all.mb58.gz 371.59MB Kongsberg multibeam vendor format
0114_20140907_122832_KEARY.all.mb58.gz 360.77MB Kongsberg multibeam vendor format
0115_20140907_131102_KEARY.all.mb58.gz 441.19MB Kongsberg multibeam vendor format
0116_20140907_142148_KEARY.all.mb58.gz 271.08MB Kongsberg multibeam vendor format
0117_20140907_144657_KEARY.all.mb58.gz 296.61MB Kongsberg multibeam vendor format
0118_20140907_151438_KEARY.all.mb58.gz 239.75MB Kongsberg multibeam vendor format
0119_20140907_153516_KEARY.all.mb58.gz 230.71MB Kongsberg multibeam vendor format
0120_20140907_155724_KEARY.all.mb58.gz 153.83MB Kongsberg multibeam vendor format
0121_20140907_162438_KEARY.all.mb58.gz 132.65MB Kongsberg multibeam vendor format
0122_20140907_163904_KEARY.all.mb58.gz 61.05MB Kongsberg multibeam vendor format
0123_20140907_164535_KEARY.all.mb58.gz 66.98MB Kongsberg multibeam vendor format
0124_20140907_170831_KEARY.all.mb58.gz 225.91MB Kongsberg multibeam vendor format
0125_20140907_173523_KEARY.all.mb58.gz 400.04MB Kongsberg multibeam vendor format
4000_20140824_095802_KEARY.all.mb58.gz 257.44MB Kongsberg multibeam vendor format
4001_20140824_105802_KEARY.all.mb58.gz 257.44MB Kongsberg multibeam vendor format
4002_20140824_115802_KEARY.all.mb58.gz 257.48MB Kongsberg multibeam vendor format
4003_20140824_125802_KEARY.all.mb58.gz 258.13MB Kongsberg multibeam vendor format
4004_20140824_135802_KEARY.all.mb58.gz 259.04MB Kongsberg multibeam vendor format
4005_20140824_145802_KEARY.all.mb58.gz 259.28MB Kongsberg multibeam vendor format
4006_20140824_155802_KEARY.all.mb58.gz 257.76MB Kongsberg multibeam vendor format
4007_20140824_165802_KEARY.all.mb58.gz 258.08MB Kongsberg multibeam vendor format
4008_20140824_175802_KEARY.all.mb58.gz 258.40MB Kongsberg multibeam vendor format
4009_20140824_185803_KEARY.all.mb58.gz 258.42MB Kongsberg multibeam vendor format
4010_20140824_195803_KEARY.all.mb58.gz 258.31MB Kongsberg multibeam vendor format
4011_20140824_205803_KEARY.all.mb58.gz 257.46MB Kongsberg multibeam vendor format
4012_20140824_215803_KEARY.all.mb58.gz 257.41MB Kongsberg multibeam vendor format
4013_20140824_225803_KEARY.all.mb58.gz 257.41MB Kongsberg multibeam vendor format
4014_20140824_235803_KEARY.all.mb58.gz 257.42MB Kongsberg multibeam vendor format
4015_20140825_005803_KEARY.all.mb58.gz 257.61MB Kongsberg multibeam vendor format
4016_20140825_015803_KEARY.all.mb58.gz 258.94MB Kongsberg multibeam vendor format
4017_20140825_025803_KEARY.all.mb58.gz 259.15MB Kongsberg multibeam vendor format
4018_20140825_035804_KEARY.all.mb58.gz 259.42MB Kongsberg multibeam vendor format
4019_20140825_045804_KEARY.all.mb58.gz 259.69MB Kongsberg multibeam vendor format
4020_20140825_055804_KEARY.all.mb58.gz 259.31MB Kongsberg multibeam vendor format
4021_20140825_065804_KEARY.all.mb58.gz 206.23MB Kongsberg multibeam vendor format
9999.all.mb58.gz 326.43MB Kongsberg multibeam vendor format
9999_140826161547_tmp.all.mb58.gz 1.7KB Kongsberg multibeam vendor format
9999_140826164515_tmp.all.mb58.gz 302.61MB Kongsberg multibeam vendor format
9999_140826171705_tmp.all.mb58.gz 429.01MB Kongsberg multibeam vendor format
9999_140826174957_tmp.all.mb58.gz 785.49MB Kongsberg multibeam vendor format
9999_140826175310_tmp.all.mb58.gz 28.41MB Kongsberg multibeam vendor format
9999_140826175613_tmp.all.mb58.gz 23.03MB Kongsberg multibeam vendor format
9999_140826175847_tmp.all.mb58.gz 17.29MB Kongsberg multibeam vendor format
9999_140826182939_tmp.all.mb58.gz 271.65MB Kongsberg multibeam vendor format
9999_140901083030_tmp.all.mb58.gz 2262.50MB Kongsberg multibeam vendor format

Metadata Files: 1

Files File Size Description
KRY14_04_Multibeam.xml NGDC created ISO metadata